FW6829 Weather Reports


time (UTC)temp
C
wind
direction
speed
KPH
gust
KPH
rain 1hr
cm
rain 24hr
cm
rain mn
cm
humidity
%
barometer
mb
20210724131723 23 270 4.8 17.7 0.00 0.00 0.00 41 820.1
20210724131223 24 289 6.4 17.7 0.00 0.00 0.00 39 718.5
20210724130723 24 160 3.2 17.7 0.00 0.00 0.00 38 584.1
20210724130223 24 168 3.2 17.7 0.00 0.00 0.00 39 600.5
20210724125723 23 124 1.6 17.7 0.00 0.00 0.00 42 507.2
20210724125223 22 42 3.2 17.7 0.00 0.00 0.00 45 514.8
20210724124723 22 12 3.2 17.7 0.00 0.00 0.00 43 774.0
20210724124223 22 263 3.2 17.7 0.00 0.00 0.00 44 860.2
20210724123723 22 336 6.4 17.7 0.00 0.00 0.00 45 738.0
20210724123223 22 345 4.8 17.7 0.00 0.00 0.00 46 492.6
20210724122722 22 34 6.4 17.7 0.00 0.00 0.00 45 286.9
20210724122222 22 40 9.7 17.7 0.00 0.00 0.00 45 321.2
20210724121722 22 66 3.2 17.7 0.00 0.00 0.00 45 379.1
20210724121222 22 54 9.7 17.7 0.00 0.00 0.00 46 424.5
20210724120722 22 24 4.8 17.7 0.00 0.00 0.00 47 550.2
20210724120222 21 10 3.2 17.7 0.00 0.00 0.00 47 777.4
20210724115722 21 276 1.6 17.7 0.00 0.00 0.00 48 990.2
20210724115222 21 285 4.8 17.7 0.00 0.00 0.00 49 1015.3
20210724114722 21 345 6.4 17.7 0.00 0.00 0.00 48 989.5
20210724114222 21 272 4.8 17.7 0.00 0.00 0.00 48 966.3
20210724113722 21 309 4.8 17.7 0.00 0.00 0.00 49 944.7
20210724113222 21 301 1.6 17.7 0.00 0.00 0.00 50 858.6
20210724112723 22 36 3.2 17.7 0.00 0.00 0.00 47 662.0
20210724112222 21 346 1.6 17.7 0.00 0.00 0.00 49 753.3
20210724111723 21 286 4.8 17.7 0.00 0.00 0.00 48 892.1
20210724111222 22 300 6.4 17.7 0.00 0.00 0.00 47 804.9
20210724110722 22 159 3.2 17.7 0.00 0.00 0.00 46 684.9
20210724110223 22 246 1.6 17.7 0.00 0.00 0.00 49 752.5
20210724105722 21 187 3.2 17.7 0.00 0.00 0.00 49 705.4
20210724105223 21 243 6.4 17.7 0.00 0.00 0.00 48 715.0
20210724104723 21 206 1.6 17.7 0.00 0.00 0.00 50 703.9
20210724104223 21 58 0.0 17.7 0.00 0.00 0.00 51 565.6
20210724103723 20 351 4.8 17.7 0.00 0.00 0.00 50 810.0
20210724103222 21 4 6.4 17.7 0.00 0.00 0.00 50 734.6
20210724102207 21 350 4.8 17.7 0.00 0.00 0.00 49 708.4
20210724101707 21 142 6.4 17.7 0.00 0.00 0.00 50 556.0
20210724101207 20 19 3.2 17.7 0.00 0.00 0.00 52 657.1
20210724100706 20 358 4.8 17.7 0.00 0.00 0.00 52 745.2
20210724100207 20 350 9.7 17.7 0.00 0.00 0.00 51 908.4
20210724095707 20 33 1.6 17.7 0.00 0.00 0.00 52 854.6
20210724095207 20 186 3.2 17.7 0.00 0.00 0.00 54 833.2
20210724094707 20 289 6.4 17.7 0.00 0.00 0.00 53 772.1
20210724094206 20 192 4.8 17.7 0.00 0.00 0.00 53 700.2
20210724093706 20 257 4.8 17.7 0.00 0.00 0.00 52 749.0
20210724093206 20 344 3.2 17.7 0.00 0.00 0.00 52 697.5
20210724092706 20 65 0.0 17.7 0.00 0.00 0.00 54 536.4
20210724092206 20 23 1.6 17.7 0.00 0.00 0.00 55 723.1
20210724091706 19 359 1.6 17.7 0.00 0.00 0.00 55 884.0
20210724091206 19 300 4.8 17.7 0.00 0.00 0.00 56 931.3
20210724090706 19 357 4.8 17.7 0.00 0.00 0.00 54 800.5
20210724090206 19 210 1.6 17.7 0.00 0.00 0.00 54 806.5
20210724085706 18 10 4.8 17.7 0.00 0.00 0.00 56 724.7
20210724085206 18 355 3.2 17.7 0.00 0.00 0.00 55 931.9
20210724084706 18 322 4.8 17.7 0.00 0.00 0.00 57 712.2
20210724084206 18 357 3.2 17.7 0.00 0.00 0.00 56 651.8
20210724083706 19 180 3.2 17.7 0.00 0.00 0.00 55 733.3
20210724083206 18 208 4.8 17.7 0.00 0.00 0.00 53 803.8
20210724082706 19 95 1.6 17.7 0.00 0.00 0.00 54 672.9
20210724082206 18 167 3.2 17.7 0.00 0.00 0.00 56 688.3
20210724081706 18 268 1.6 17.7 0.00 0.00 0.00 56 787.0
20210724081206 18 195 4.8 17.7 0.00 0.00 0.00 57 905.2
20210724080706 17 269 4.8 17.7 0.00 0.00 0.00 57 995.7
20210724080206 17 316 6.4 17.7 0.00 0.00 0.00 57 984.3
20210724075706 17 273 4.8 17.7 0.00 0.00 0.00 57 931.3
20210724075206 17 335 3.2 17.7 0.00 0.00 0.00 57 846.9
20210724074706 17 261 3.2 17.7 0.00 0.00 0.00 57 871.7
20210724074206 17 242 3.2 17.7 0.00 0.00 0.00 57 780.8
20210724073706 17 210 1.6 17.7 0.00 0.00 0.00 57 678.6
20210724073206 18 194 4.8 17.7 0.00 0.00 0.00 56 608.6
20210724072706 17 113 3.2 17.7 0.00 0.00 0.00 58 604.4
20210724072206 17 176 3.2 17.7 0.00 0.00 0.00 60 642.2
20210724071706 16 148 1.6 17.7 0.00 0.00 0.00 61 652.5
20210724071206 16 183 0.0 17.7 0.00 0.00 0.00 61 677.1
20210724070706 16 188 3.2 17.7 0.00 0.00 0.00 62 652.1
20210724070206 16 184 1.6 17.7 0.00 0.00 0.00 61 613.5
20210724065706 16 153 1.6 17.7 0.00 0.00 0.00 62 545.6
20210724065206 16 176 1.6 17.7 0.00 0.00 0.00 63 505.3
20210724064706 16 100 1.6 17.7 0.00 0.00 0.00 62 431.8
20210724064206 16 68 3.2 17.7 0.00 0.00 0.00 63 416.5
20210724063706 16 79 3.2 17.7 0.00 0.00 0.00 63 484.9
20210724063206 16 114 1.6 17.7 0.00 0.00 0.00 62 470.6
20210724062706 16 97 1.6 17.7 0.00 0.00 0.00 64 468.8
20210724062206 16 119 1.6 17.7 0.00 0.00 0.00 65 468.7
20210724061706 16 80 1.6 17.7 0.00 0.00 0.00 65 466.7
20210724061206 15 159 1.6 17.7 0.00 0.00 0.00 66 532.6
20210724060706 15 105 1.6 17.7 0.00 0.00 0.00 66 515.0
20210724060205 15 146 0.0 17.7 0.00 0.00 0.00 64 582.3
20210724055705 15 159 3.2 17.7 0.00 0.00 0.00 64 605.3
20210724055205 15 183 0.0 17.7 0.00 0.00 0.00 63 582.0
20210724054705 15 103 3.2 17.7 0.00 0.00 0.00 64 480.8
20210724054205 15 103 3.2 17.7 0.00 0.00 0.00 66 508.7
20210724053705 14 48 4.8 17.7 0.00 0.00 0.00 69 573.7
20210724053205 14 15 1.6 17.7 0.00 0.00 0.00 72 855.9
20210724052705 13 313 3.2 17.7 0.00 0.00 0.00 72 1055.5
20210724052205 13 308 1.6 17.7 0.00 0.00 0.00 73 1034.4
20210724051705 13 286 0.0 17.7 0.00 0.00 0.00 73 1008.6
20210724051204 13 286 0.0 17.7 0.00 0.00 0.00 75 1010.3
20210724050704 12 286 0.0 17.7 0.00 0.00 0.00 77 1009.4
20210724050204 12 286 0.0 17.7 0.00 0.00 0.00 79 1007.8
20210724045704 11 286 0.0 17.7 0.00 0.00 0.00 81 1008.2
20210724045204 11 286 0.0 17.7 0.00 0.00 0.00 82 1007.9
20210724044704 11 286 0.0 17.7 0.00 0.00 0.00 82 1010.2
20210724044204 10 286 0.0 17.7 0.00 0.00 0.00 84 1009.6
20210724043704 10 286 0.0 17.7 0.00 0.00 0.00 83 1011.0
20210724043204 10 286 0.0 17.7 0.00 0.00 0.00 83 1011.1
20210724042704 10 286 0.0 17.7 0.00 0.00 0.00 85 1013.0
20210724042204 9 286 0.0 17.7 0.00 0.00 0.00 88 1013.5
20210724041704 8 286 0.0 17.7 0.00 0.00 0.00 87 1013.2
20210724041204 8 286 0.0 17.7 0.00 0.00 0.00 88 1013.9
20210724040704 8 286 0.0 17.7 0.00 0.00 0.00 91 1013.3
20210724040204 8 286 0.0 17.7 0.00 0.00 0.00 91 1013.5
20210724035704 7 286 0.0 17.7 0.00 0.00 0.00 91 1012.5
20210724035204 7 286 0.0 17.7 0.00 0.00 0.00 92 1011.9
20210724034704 7 286 0.0 17.7 0.00 0.00 0.00 95 1009.8
20210724034204 7 286 0.0 17.7 0.00 0.00 0.00 94 1009.1
20210724033704 7 286 0.0 17.7 0.00 0.00 0.00 90 1008.8
20210724033204 7 286 0.0 17.7 0.00 0.00 0.00 90 1009.2
20210724032704 7 286 0.0 17.7 0.00 0.00 0.00 91 1009.1
20210724032204 7 286 0.0 17.7 0.00 0.00 0.00 94 1009.8
20210724031704 7 286 0.0 17.7 0.00 0.00 0.00 96 1009.6
20210724031204 7 286 0.0 17.7 0.00 0.00 0.00 94 1009.7
20210724030704 7 286 0.0 17.7 0.00 0.00 0.00 94 1009.7
20210724030204 7 286 0.0 17.7 0.00 0.00 0.00 96 1009.9
20210724025704 6 286 0.0 17.7 0.00 0.00 0.00 96 1009.3
20210724025204 6 286 0.0 17.7 0.00 0.00 0.00 94 1008.9
20210724024704 6 286 0.0 17.7 0.00 0.00 0.00 93 1008.7
20210724024204 6 286 0.0 17.7 0.00 0.00 0.00 93 1008.4
20210724023704 6 286 0.0 17.7 0.00 0.00 0.00 93 1008.6
20210724023204 6 286 0.0 17.7 0.00 0.00 0.00 93 1009.3
20210724022704 6 286 0.0 17.7 0.00 0.00 0.00 92 1008.6
20210724022204 6 286 0.0 17.7 0.00 0.00 0.00 92 1008.1
20210724021704 6 286 0.0 17.7 0.00 0.00 0.00 91 1008.1
20210724021204 6 286 0.0 17.7 0.00 0.00 0.00 93 1008.6
20210724020704 6 286 0.0 17.7 0.00 0.00 0.00 89 1008.4
20210724020204 7 286 0.0 17.7 0.00 0.00 0.00 90 1008.2
20210724015704 7 286 0.0 17.7 0.00 0.00 0.00 92 1008.0
20210724015204 6 286 0.0 17.7 0.00 0.00 0.00 92 1007.1
20210724014704 7 286 0.0 17.7 0.00 0.00 0.00 90 1006.2
20210724014204 7 286 0.0 17.7 0.00 0.00 0.00 90 1006.7
20210724013704 7 286 0.0 17.7 0.00 0.00 0.00 89 1006.7
20210724013204 7 286 0.0 17.7 0.00 0.00 0.00 89 1007.3
20210724012704 7 286 0.0 17.7 0.00 0.00 0.00 91 1008.2
20210724012204 7 286 0.0 17.7 0.00 0.00 0.00 89 1008.9
20210724011704 7 286 0.0 17.7 0.00 0.00 0.00 89 1009.1
20210724011203 7 286 0.0 17.7 0.00 0.00 0.00 89 1009.1
20210724010703 7 286 0.0 17.7 0.00 0.00 0.00 90 1008.8
20210724010203 7 286 0.0 17.7 0.00 0.00 0.00 88 1008.4
20210724005703 7 286 0.0 17.7 0.00 0.00 0.00 87 1007.8
20210724005203 7 286 0.0 17.7 0.00 0.00 0.00 86 1006.6
20210724004703 7 286 0.0 17.7 0.00 0.00 0.00 85 1005.2
20210724004203 7 286 0.0 17.7 0.00 0.00 0.00 83 1005.0
20210724003703 8 286 0.0 17.7 0.00 0.00 0.00 82 1006.3
20210724003203 9 286 0.0 17.7 0.00 0.00 0.00 82 1007.8
20210724002703 9 286 0.0 17.7 0.00 0.00 0.00 82 1008.0
20210724002203 9 286 0.0 17.7 0.00 0.00 0.00 82 1007.4
20210724001703 9 286 0.0 17.7 0.00 0.00 0.00 82 1006.1
20210724001203 9 286 1.6 17.7 0.00 0.00 0.00 83 1005.7
20210724000703 9 286 0.0 17.7 0.00 0.00 0.00 81 1006.3
20210724000204 9 286 0.0 17.7 0.00 0.00 0.00 79 1005.8
20210723235703 10 286 0.0 17.7 0.00 0.00 0.00 77 1006.7
20210723235203 10 286 1.6 17.7 0.00 0.00 0.00 79 1004.7
20210723234703 10 286 1.6 17.7 0.00 0.00 0.00 79 1003.1
20210723234203 10 286 1.6 17.7 0.00 0.00 0.00 79 1002.8
20210723233703 10 286 0.0 17.7 0.00 0.00 0.00 78 1001.7
20210723233203 10 286 0.0 17.7 0.00 0.00 0.00 77 999.7
20210723232703 11 286 0.0 17.7 0.00 0.00 0.00 75 994.6
20210723232203 11 286 0.0 17.7 0.00 0.00 0.00 75 981.9
20210723231703 11 275 1.6 17.7 0.00 0.00 0.00 76 957.5
20210723231203 11 271 1.6 17.7 0.00 0.00 0.00 75 951.9
20210723230703 11 271 0.0 17.7 0.00 0.00 0.00 73 948.3
20210723230203 12 271 0.0 17.7 0.00 0.00 0.00 70 937.7
20210723225702 12 271 1.6 17.7 0.00 0.00 0.00 71 915.5
20210723225202 12 245 1.6 17.7 0.00 0.00 0.00 71 872.8
20210723224702 11 241 1.6 17.7 0.00 0.00 0.00 72 869.4
20210723224202 12 241 1.6 17.7 0.00 0.00 0.00 71 869.8
20210723223702 12 241 0.0 17.7 0.00 0.00 0.00 70 870.9
20210723223202 12 241 0.0 17.7 0.00 0.00 0.00 69 871.2
20210723222702 12 241 0.0 17.7 0.00 0.00 0.00 68 871.8
20210723222202 13 241 0.0 17.7 0.00 0.00 0.00 66 873.3
20210723221702 13 241 1.6 17.7 0.00 0.00 0.00 64 876.1
20210723221202 13 241 1.6 17.7 0.00 0.00 0.00 63 882.1
20210723220702 14 241 1.6 17.7 0.00 0.00 0.00 61 892.0
20210723220202 15 255 4.8 17.7 0.00 0.00 0.00 61 912.8
20210723215702 15 264 6.4 17.7 0.00 0.00 0.00 61 921.4
20210723215202 14 235 8.0 17.7 0.00 0.00 0.00 62 910.6
20210723214702 14 264 4.8 17.7 0.00 0.00 0.00 64 925.8
20210723214202 14 292 4.8 17.7 0.00 0.00 0.00 63 879.6
20210723213702 15 348 3.2 17.7 0.00 0.00 0.00 63 737.4
20210723213202 15 320 3.2 17.7 0.00 0.00 0.00 63 772.2
20210723212702 15 18 3.2 17.7 0.00 0.00 0.00 63 591.7
20210723212202 15 347 3.2 17.7 0.00 0.00 0.00 64 621.5
20210723211702 15 247 1.6 17.7 0.00 0.00 0.00 64 544.0
20210723211202 14 39 4.8 17.7 0.00 0.00 0.00 65 598.7
20210723210703 13 17 1.6 17.7 0.00 0.00 0.00 66 736.3
20210723210202 14 255 3.2 17.7 0.00 0.00 0.00 65 886.6
20210723205702 15 204 1.6 17.7 0.00 0.00 0.00 64 915.2
20210723205201 15 258 1.6 17.7 0.00 0.00 0.00 63 1001.0
20210723204701 15 275 3.2 17.7 0.00 0.00 0.00 62 1070.9
20210723204200 15 316 3.2 17.7 0.00 0.00 0.00 61 1143.6
20210723203700 16 351 1.6 17.7 0.00 0.00 0.00 60 1148.7
20210723203200 16 331 1.6 17.7 0.00 0.00 0.00 60 1116.8
20210723202701 16 326 3.2 17.7 0.00 0.00 0.00 60 1085.5
20210723202200 16 345 3.2 17.7 0.00 0.00 0.00 61 1027.8
20210723201700 16 318 1.6 17.7 0.00 0.00 0.00 61 1106.7
20210723201201 16 319 3.2 17.7 0.00 0.00 0.00 61 1100.1
20210723200701 16 315 3.2 17.7 0.00 0.00 0.00 61 1088.8
20210723200200 16 308 3.2 17.7 0.00 0.00 0.00 60 1090.0
20210723195700 16 313 3.2 17.7 0.00 0.00 0.00 60 1103.7
20210723195200 16 328 1.6 17.7 0.00 0.00 0.00 60 1104.7
20210723194701 16 335 3.2 17.7 0.00 0.00 0.00 60 1076.8
20210723194201 16 302 1.6 17.7 0.00 0.00 0.00 59 1076.3
20210723193701 16 308 3.2 17.7 0.00 0.00 0.00 59 1102.8
20210723193200 17 320 3.2 17.7 0.00 0.00 0.00 58 1114.4
20210723192701 17 340 3.2 17.7 0.00 0.00 0.00 57 1096.7
20210723192201 17 328 3.2 17.7 0.00 0.00 0.00 57 1061.2
20210723191701 17 347 3.2 17.7 0.00 0.00 0.00 56 1013.1
20210723191200 17 351 1.6 17.7 0.00 0.00 0.00 56 1037.8
20210723190700 17 351 1.6 17.7 0.00 0.00 0.00 55 1039.4
20210723190159 17 355 1.6 17.7 0.00 0.00 0.00 55 903.6
20210723185700 18 338 1.6 17.7 0.00 0.00 0.00 54 799.9
20210723185159 18 4 4.8 17.7 0.00 0.00 0.00 54 561.7
20210723184700 18 356 4.8 17.7 0.00 0.00 0.00 53 728.8
20210723184200 18 10 4.8 17.7 0.00 0.00 0.00 52 761.1
20210723183700 18 359 3.2 17.7 0.00 0.00 0.00 52 838.0
20210723183200 18 352 3.2 17.7 0.00 0.00 0.00 52 891.6
20210723182700 18 16 3.2 17.7 0.00 0.00 0.00 50 705.0
20210723182200 18 355 6.4 17.7 0.00 0.00 0.00 50 704.3
20210723181700 19 353 6.4 17.7 0.00 0.00 0.00 49 761.4
20210723181200 19 359 6.4 17.7 0.00 0.00 0.00 49 821.4
20210723180700 19 345 6.4 17.7 0.00 0.00 0.00 50 781.4
20210723180200 19 350 3.2 17.7 0.00 0.00 0.00 50 819.1
20210723175700 19 3 3.2 17.7 0.00 0.00 0.00 49 705.0
20210723175200 19 348 6.4 17.7 0.00 0.00 0.00 48 842.4
20210723174700 19 345 3.2 17.7 0.00 0.00 0.00 48 704.2
20210723174200 19 356 6.4 17.7 0.00 0.00 0.00 48 772.5
20210723173700 19 7 3.2 17.7 0.00 0.00 0.00 47 692.7
20210723173200 19 9 8.0 17.7 0.00 0.00 0.00 46 820.2
20210723172700 19 356 6.4 17.7 0.00 0.00 0.00 46 918.6
20210723172200 19 355 6.4 17.7 0.00 0.00 0.00 46 817.5
20210723171700 19 14 8.0 17.7 0.00 0.00 0.00 46 729.4
20210723171159 20 358 9.7 17.7 0.00 0.00 0.00 46 723.8
20210723170659 20 354 8.0 17.7 0.00 0.00 0.00 47 793.6
20210723170159 20 355 6.4 17.7 0.00 0.00 0.00 47 920.7
20210723165659 20 347 8.0 17.7 0.00 0.00 0.00 47 890.9
20210723165159 20 326 4.8 17.7 0.00 0.00 0.00 46 881.5
20210723164659 20 15 9.7 17.7 0.00 0.00 0.00 45 731.0
20210723164159 20 351 4.8 17.7 0.00 0.00 0.00 45 703.0
20210723163659 20 27 8.0 17.7 0.00 0.00 0.00 44 499.5
20210723163159 20 13 8.0 17.7 0.00 0.00 0.00 44 631.3
20210723162659 20 346 6.4 17.7 0.00 0.00 0.00 44 626.1
20210723162159 20 44 11.3 17.7 0.00 0.00 0.00 44 563.8
20210723161659 20 315 4.8 19.3 0.00 0.00 0.00 44 844.7
20210723161159 20 348 6.4 19.3 0.00 0.00 0.00 44 864.0
20210723160659 20 15 9.7 19.3 0.00 0.00 0.00 44 847.7
20210723160159 20 321 4.8 19.3 0.00 0.00 0.00 45 949.7
20210723155659 20 329 6.4 19.3 0.00 0.00 0.00 45 910.5
20210723155159 20 344 9.7 19.3 0.00 0.00 0.00 44 736.2
20210723154659 20 6 8.0 19.3 0.00 0.00 0.00 44 587.0
20210723154159 20 19 6.4 19.3 0.00 0.00 0.00 45 667.4
20210723153659 20 20 8.0 20.9 0.00 0.00 0.00 44 876.0
20210723153159 20 343 9.7 20.9 0.00 0.00 0.00 45 1020.8
20210723152659 20 309 6.4 19.3 0.00 0.00 0.00 46 974.4
20210723152159 20 301 9.7 22.5 0.00 0.00 0.00 44 871.1
20210723151659 20 348 6.4 22.5 0.00 0.00 0.00 44 666.7
20210723151159 20 30 9.7 22.5 0.00 0.00 0.00 45 463.5
20210723150658 20 38 8.0 22.5 0.00 0.00 0.00 44 571.7
20210723150158 20 19 8.0 19.3 0.00 0.00 0.00 43 819.2
20210723145658 20 296 4.8 19.3 0.00 0.00 0.00 43 1038.2
20210723145158 20 332 8.0 22.5 0.00 0.00 0.00 43 1037.0
20210723144658 20 311 8.0 22.5 0.00 0.00 0.00 44 1030.3
20210723144158 20 278 6.4 17.7 0.00 0.00 0.00 46 1007.9
20210723143658 19 287 6.4 17.7 0.00 0.00 0.00 44 1000.7
20210723143158 20 329 3.2 17.7 0.00 0.00 0.00 45 974.7
20210723142658 19 285 8.0 19.3 0.00 0.00 0.00 45 982.5
20210723142158 19 253 8.0 19.3 0.00 0.00 0.00 45 973.6
20210723141658 19 287 6.4 19.3 0.00 0.00 0.00 47 1010.8
20210723141158 19 283 9.7 19.3 0.00 0.00 0.00 46 996.2
20210723140658 18 313 9.7 19.3 0.00 0.00 0.00 48 1000.0
20210723140158 18 281 8.0 19.3 0.00 0.00 0.00 47 1008.2
20210723135658 18 301 6.4 19.3 0.00 0.00 0.00 48 1043.5
20210723135158 18 314 8.0 19.3 0.00 0.00 0.00 50 1043.0
20210723134658 18 278 3.2 17.7 0.00 0.00 0.00 50 1003.1
20210723134158 18 269 9.7 22.5 0.00 0.00 0.00 50 1007.9
20210723133658 18 293 9.7 22.5 0.00 0.00 0.00 52 1032.0
20210723133158 18 302 9.7 20.9 0.00 0.00 0.00 51 1050.6
20210723132658 17 306 6.4 20.9 0.00 0.00 0.00 52 1048.5
20210723132158 17 290 14.5 20.9 0.00 0.00 0.00 51 1042.4